Time,TemperatureF,DewpointF,PressureIn,WindDirection,WindDirectionDegrees,WindSpeedMPH,WindSpeedGustMPH,Humidity,HourlyPrecipIn,Conditions,Clouds,dailyrainin,SoftwareType,DateUTC
2013-02-01 00:00:00,30.0,6.9,29.00,SSW,210,3.1,3.6,37,0.00,,BKN,0.00,VWS V13.01,2013-02-01 05:00:00,
2013-02-01 00:01:00,30.0,6.9,29.00,SSW,210,3.6,4.0,37,0.00,,BKN,0.00,VWS V13.01,2013-02-01 05:01:00,
2013-02-01 00:06:00,29.8,6.8,29.00,SSW,210,3.6,4.0,37,0.00,,BKN,0.00,VWS V13.01,2013-02-01 05:06:00,
2013-02-01 00:11:00,29.7,6.6,29.00,SSW,210,0.0,3.6,37,0.00,,BKN,0.00,VWS V13.01,2013-02-01 05:11:00,
2013-02-01 00:16:00,29.7,6.6,28.97,SSW,210,0.0,0.0,37,0.00,,BKN,0.00,VWS V13.01,2013-02-01 05:16:00,
2013-02-01 00:21:00,29.3,7.4,28.97,SSW,210,0.0,0.0,39,0.00,,BKN,0.00,VWS V13.01,2013-02-01 05:21:00,
2013-02-01 00:26:00,28.8,6.9,28.97,SSW,210,0.0,0.0,39,0.00,,BKN,0.00,VWS V13.01,2013-02-01 05:26:00,
2013-02-01 00:31:00,28.2,6.4,29.00,SSW,210,0.0,0.0,39,0.00,,BKN,0.00,VWS V13.01,2013-02-01 05:31:00,
2013-02-01 00:36:00,28.0,6.3,29.00,SSW,210,0.0,0.0,39,0.00,,BKN,0.00,VWS V13.01,2013-02-01 05:36:00,
2013-02-01 00:41:00,28.0,6.8,29.00,SSW,210,0.0,0.0,40,0.00,,BKN,0.00,VWS V13.01,2013-02-01 05:41:00,
2013-02-01 00:46:00,28.0,6.8,28.97,SSW,210,0.0,0.0,40,0.00,,BKN,0.00,VWS V13.01,2013-02-01 05:46:00,
2013-02-01 00:51:00,27.9,6.7,28.97,SSW,210,0.0,0.0,40,0.00,,BKN,0.00,VWS V13.01,2013-02-01 05:51:00,
2013-02-01 00:56:00,27.7,6.5,28.97,SSW,210,0.0,0.0,40,0.00,,BKN,0.00,VWS V13.01,2013-02-01 05:56:00,
2013-02-01 01:01:00,27.7,7.1,28.97,SSW,210,0.0,0.0,41,0.00,,BKN,0.00,VWS V13.01,2013-02-01 06:01:00,
2013-02-01 01:06:00,27.5,6.9,28.97,SSW,210,0.0,0.0,41,0.00,,BKN,0.00,VWS V13.01,2013-02-01 06:06:00,
2013-02-01 01:11:00,27.5,6.9,28.97,SSW,210,0.0,0.0,41,0.00,,BKN,0.00,VWS V13.01,2013-02-01 06:11:00,
2013-02-01 01:16:00,27.5,6.9,28.97,SSW,210,0.0,0.0,41,0.00,,BKN,0.00,VWS V13.01,2013-02-01 06:16:00,
2013-02-01 01:21:00,27.5,6.9,28.97,SSW,210,0.0,0.0,41,0.00,,BKN,0.00,VWS V13.01,2013-02-01 06:21:00,
2013-02-01 01:26:00,27.9,7.2,28.97,SSW,210,0.0,0.0,41,0.00,,BKN,0.00,VWS V13.01,2013-02-01 06:26:00,
2013-02-01 01:31:00,28.0,7.4,28.97,SSW,210,0.0,0.0,41,0.00,,BKN,0.00,VWS V13.01,2013-02-01 06:31:00,
2013-02-01 01:36:00,28.0,7.4,28.97,SSW,210,0.0,0.0,41,0.00,,BKN,0.00,VWS V13.01,2013-02-01 06:36:00,
2013-02-01 01:41:00,28.2,7.6,28.97,SSW,210,0.0,0.0,41,0.00,,BKN,0.00,VWS V13.01,2013-02-01 06:41:00,
2013-02-01 01:46:00,28.0,7.4,28.97,SSW,210,0.0,0.0,41,0.00,,BKN,0.00,VWS V13.01,2013-02-01 06:46:00,
2013-02-01 01:51:00,28.0,7.9,28.97,SSW,210,0.0,0.0,42,0.00,,BKN,0.00,VWS V13.01,2013-02-01 06:51:00,
2013-02-01 01:56:00,27.7,7.6,28.97,SSW,210,0.0,0.0,42,0.00,,BKN,0.00,VWS V13.01,2013-02-01 06:56:00,
2013-02-01 02:01:00,27.5,7.4,28.97,SSW,210,0.0,0.0,42,0.00,,BKN,0.00,VWS V13.01,2013-02-01 07:01:00,
2013-02-01 02:06:00,27.5,7.4,28.97,SSW,210,0.0,0.0,42,0.00,,BKN,0.00,VWS V13.01,2013-02-01 07:06:00,
2013-02-01 02:11:00,27.7,7.6,28.97,SSW,210,0.0,0.0,42,0.00,,BKN,0.00,VWS V13.01,2013-02-01 07:11:00,
2013-02-01 02:16:00,27.7,7.6,28.97,SSW,210,0.0,0.0,42,0.00,,BKN,0.00,VWS V13.01,2013-02-01 07:16:00,
2013-02-01 02:21:00,27.9,7.8,28.97,SSW,210,0.0,0.0,42,0.00,,BKN,0.00,VWS V13.01,2013-02-01 07:21:00,
2013-02-01 02:26:00,27.7,7.6,28.97,SSW,210,0.0,0.0,42,0.00,,BKN,0.00,VWS V13.01,2013-02-01 07:26:00,
2013-02-01 02:31:00,27.7,7.6,28.97,SSW,210,0.0,0.0,42,0.00,,BKN,0.00,VWS V13.01,2013-02-01 07:31:00,
2013-02-01 02:36:00,27.7,7.6,28.97,SSW,210,0.0,0.0,42,0.00,,BKN,0.00,VWS V13.01,2013-02-01 07:36:00,
2013-02-01 02:41:00,27.7,7.6,28.97,SSW,210,0.0,0.0,42,0.00,,BKN,0.00,VWS V13.01,2013-02-01 07:41:00,
2013-02-01 02:46:00,27.9,7.8,28.94,SSW,210,0.0,0.0,42,0.00,,BKN,0.00,VWS V13.01,2013-02-01 07:46:00,
2013-02-01 02:51:00,27.9,7.8,28.94,SSW,210,0.0,0.0,42,0.00,,BKN,0.00,VWS V13.01,2013-02-01 07:51:00,
2013-02-01 02:56:00,27.9,8.3,28.94,SSW,210,0.0,0.0,43,0.00,,BKN,0.00,VWS V13.01,2013-02-01 07:56:00,
2013-02-01 03:01:00,27.9,8.3,28.94,SSW,210,0.0,0.0,43,0.00,,BKN,0.00,VWS V13.01,2013-02-01 08:01:00,
2013-02-01 03:06:00,27.9,8.3,28.94,SSW,210,0.0,0.0,43,0.00,,BKN,0.00,VWS V13.01,2013-02-01 08:06:00,
2013-02-01 03:11:00,27.7,8.1,28.94,SSW,210,0.0,0.0,43,0.00,,BKN,0.00,VWS V13.01,2013-02-01 08:11:00,
2013-02-01 03:16:00,27.7,8.1,28.94,SSW,210,3.1,3.1,43,0.00,,BKN,0.00,VWS V13.01,2013-02-01 08:16:00,
2013-02-01 03:21:00,27.7,8.1,28.94,SSW,210,0.0,0.0,43,0.00,,BKN,0.00,VWS V13.01,2013-02-01 08:21:00,
2013-02-01 03:26:00,27.7,8.6,28.94,SSW,210,0.0,0.0,44,0.00,,BKN,0.00,VWS V13.01,2013-02-01 08:26:00,
2013-02-01 03:31:00,27.7,8.6,28.94,WNW,288,3.1,3.6,44,0.00,,BKN,0.00,VWS V13.01,2013-02-01 08:31:00,
2013-02-01 03:36:00,27.7,8.6,28.94,WNW,288,3.6,4.0,44,0.00,,BKN,0.00,VWS V13.01,2013-02-01 08:36:00,
2013-02-01 03:41:00,27.9,8.8,28.94,WNW,288,2.7,4.0,44,0.00,,BKN,0.00,VWS V13.01,2013-02-01 08:41:00,
2013-02-01 03:46:00,27.9,9.3,28.94,WNW,288,3.6,3.6,45,0.00,,BKN,0.00,VWS V13.01,2013-02-01 08:46:00,
2013-02-01 03:51:00,28.0,9.4,28.94,WNW,288,2.7,3.6,45,0.00,,BKN,0.00,VWS V13.01,2013-02-01 08:51:00,
2013-02-01 03:56:00,28.2,9.6,28.94,NW,307,3.1,6.3,45,0.00,,BKN,0.00,VWS V13.01,2013-02-01 08:56:00,
2013-02-01 04:01:00,28.8,12.0,28.94,NW,311,5.8,5.8,49,0.00,,BKN,0.00,VWS V13.01,2013-02-01 09:01:00,
2013-02-01 04:06:00,28.8,12.5,28.94,WNW,293,5.4,6.3,50,0.00,,BKN,0.00,VWS V13.01,2013-02-01 09:06:00,
2013-02-01 04:11:00,29.1,13.7,28.94,WNW,299,2.7,4.9,52,0.00,,BKN,0.00,VWS V13.01,2013-02-01 09:11:00,
2013-02-01 04:16:00,29.3,13.9,28.94,West,262,7.4,8.7,52,0.00,,BKN,0.00,VWS V13.01,2013-02-01 09:16:00,
2013-02-01 04:21:00,29.7,14.2,28.94,West,274,5.8,6.9,52,0.00,,BKN,0.00,VWS V13.01,2013-02-01 09:21:00,
2013-02-01 04:26:00,29.7,13.8,28.94,West,262,4.0,4.0,51,0.00,,BKN,0.00,VWS V13.01,2013-02-01 09:26:00,
2013-02-01 04:31:00,29.8,13.9,28.94,WSW,249,3.1,5.4,51,0.00,,BKN,0.00,VWS V13.01,2013-02-01 09:31:00,
2013-02-01 04:36:00,30.0,14.1,28.94,West,264,3.1,3.1,51,0.00,,BKN,0.00,VWS V13.01,2013-02-01 09:36:00,
2013-02-01 04:41:00,30.0,14.1,28.94,West,271,3.6,4.5,51,0.00,,BKN,0.00,VWS V13.01,2013-02-01 09:41:00,
2013-02-01 04:46:00,30.0,14.1,28.97,West,274,4.5,5.8,51,0.00,,BKN,0.00,VWS V13.01,2013-02-01 09:46:00,
2013-02-01 04:51:00,30.0,14.1,28.97,WNW,298,5.8,7.4,51,0.00,,BKN,0.00,VWS V13.01,2013-02-01 09:51:00,
2013-02-01 04:56:00,29.7,13.8,28.97,WNW,295,8.3,9.2,51,0.00,,BKN,0.00,VWS V13.01,2013-02-01 09:56:00,
2013-02-01 05:01:00,28.9,13.5,29.00,WNW,298,8.3,8.3,52,0.00,,BKN,0.00,VWS V13.01,2013-02-01 10:01:00,
2013-02-01 05:06:00,28.2,13.7,29.00,WNW,295,6.3,8.7,54,0.00,,BKN,0.00,VWS V13.01,2013-02-01 10:06:00,
2013-02-01 05:11:00,27.3,15.3,29.00,West,268,7.8,9.2,60,0.00,,BKN,0.00,VWS V13.01,2013-02-01 10:11:00,
2013-02-01 05:16:00,26.1,15.6,29.03,WNW,283,15.2,15.2,64,0.00,,BKN,0.00,VWS V13.01,2013-02-01 10:16:00,
2013-02-01 05:21:00,24.6,15.2,29.03,NW,307,13.4,13.4,67,0.00,,BKN,0.00,VWS V13.01,2013-02-01 10:21:00,
2013-02-01 05:26:00,24.1,15.4,29.03,WNW,297,4.5,8.3,69,0.00,,BKN,0.00,VWS V13.01,2013-02-01 10:26:00,
2013-02-01 05:31:00,23.9,15.9,29.03,WSW,258,5.4,5.4,71,0.00,,BKN,0.00,VWS V13.01,2013-02-01 10:31:00,
2013-02-01 05:36:00,23.9,16.2,29.03,WNW,290,6.9,6.9,72,0.00,,BKN,0.00,VWS V13.01,2013-02-01 10:36:00,
2013-02-01 05:41:00,23.9,15.9,29.03,NW,320,11.2,11.2,71,0.00,,BKN,0.00,VWS V13.01,2013-02-01 10:41:00,
2013-02-01 05:46:00,23.9,14.9,29.03,West,279,6.9,9.6,68,0.00,,BKN,0.00,VWS V13.01,2013-02-01 10:46:00,
2013-02-01 05:51:00,24.1,14.0,29.03,WNW,302,6.7,10.1,65,0.00,,BKN,0.00,VWS V13.01,2013-02-01 10:51:00,
2013-02-01 05:56:00,24.1,13.0,29.03,WNW,289,9.2,12.5,62,0.00,,BKN,0.00,VWS V13.01,2013-02-01 10:56:00,
2013-02-01 06:01:00,24.1,11.8,29.03,WNW,300,2.7,8.7,59,0.00,,BKN,0.00,VWS V13.01,2013-02-01 11:01:00,
2013-02-01 06:06:00,24.1,11.5,29.03,WNW,299,3.1,4.9,58,0.00,,BKN,0.00,VWS V13.01,2013-02-01 11:06:00,
2013-02-01 06:10:00,24.1,11.5,29.03,WNW,298,5.4,5.4,58,0.00,,BKN,0.00,VWS V13.01,2013-02-01 11:10:00,
2013-02-01 06:16:00,24.1,11.5,29.03,WNW,292,0.0,4.0,58,0.00,,BKN,0.00,VWS V13.01,2013-02-01 11:16:00,
2013-02-01 06:20:00,24.1,11.5,29.03,NW,310,4.5,5.4,58,0.00,,BKN,0.00,VWS V13.01,2013-02-01 11:20:00,
2013-02-01 06:25:00,24.1,11.5,29.03,West,275,5.4,5.8,58,0.00,,BKN,0.00,VWS V13.01,2013-02-01 11:25:00,
2013-02-01 06:30:00,24.3,11.2,29.06,NW,318,7.4,7.8,57,0.00,,BKN,0.00,VWS V13.01,2013-02-01 11:30:00,
2013-02-01 06:36:00,24.4,11.0,29.06,West,267,11.0,11.0,56,0.00,,BKN,0.00,VWS V13.01,2013-02-01 11:36:00,
2013-02-01 06:40:00,24.3,9.2,29.06,WNW,291,6.9,9.6,52,0.00,,BKN,0.00,VWS V13.01,2013-02-01 11:40:00,
2013-02-01 06:45:00,24.3,7.9,29.06,West,267,6.3,11.0,49,0.00,,BKN,0.00,VWS V13.01,2013-02-01 11:45:00,
2013-02-01 06:50:00,24.1,7.2,29.06,West,267,9.2,13.0,48,0.00,,BKN,0.00,VWS V13.01,2013-02-01 11:50:00,
2013-02-01 06:55:00,23.9,6.1,29.06,WSW,257,6.9,11.0,46,0.00,,BKN,0.00,VWS V13.01,2013-02-01 11:55:00,
2013-02-01 07:00:00,23.9,6.6,29.06,NW,309,10.5,15.2,47,0.00,,BKN,0.00,VWS V13.01,2013-02-01 12:00:00,
2013-02-01 07:05:00,23.7,5.5,29.06,NW,322,14.3,14.3,45,0.00,,BKN,0.00,VWS V13.01,2013-02-01 12:05:00,
2013-02-01 07:10:00,23.7,5.0,29.06,WNW,297,6.7,13.4,44,0.00,,BKN,0.00,VWS V13.01,2013-02-01 12:10:00,
2013-02-01 07:15:00,23.7,5.0,29.09,WNW,301,4.0,8.3,44,0.00,,BKN,0.00,VWS V13.01,2013-02-01 12:15:00,
2013-02-01 07:20:00,23.5,4.3,29.09,NW,307,7.4,14.3,43,0.00,,BKN,0.00,VWS V13.01,2013-02-01 12:20:00,
2013-02-01 07:25:00,23.4,4.2,29.09,West,270,8.7,13.4,43,0.00,,BKN,0.00,VWS V13.01,2013-02-01 12:25:00,
2013-02-01 07:30:00,23.2,4.0,29.09,West,263,10.5,16.3,43,0.00,,BKN,0.00,VWS V13.01,2013-02-01 12:30:00,
2013-02-01 07:35:00,23.0,3.8,29.09,West,281,15.9,15.9,43,0.00,,BKN,0.00,VWS V13.01,2013-02-01 12:35:00,
2013-02-01 07:40:00,23.0,3.8,29.09,SSW,211,6.9,11.2,43,0.00,,BKN,0.00,VWS V13.01,2013-02-01 12:40:00,
2013-02-01 07:45:00,23.0,3.3,29.12,NNW,338,7.8,11.6,42,0.00,,BKN,0.00,VWS V13.01,2013-02-01 12:45:00,
2013-02-01 07:50:00,23.0,3.3,29.12,WNW,291,10.1,10.1,42,0.00,,BKN,0.00,VWS V13.01,2013-02-01 12:50:00,
2013-02-01 07:55:00,22.8,3.2,29.12,NW,309,11.6,12.1,42,0.00,,BKN,0.00,VWS V13.01,2013-02-01 12:55:00,
2013-02-01 08:01:00,22.6,3.0,29.15,West,278,8.3,12.1,42,0.00,,BKN,0.00,VWS V13.01,2013-02-01 13:01:00,
2013-02-01 08:06:00,22.6,3.0,29.15,WNW,292,7.4,16.8,42,0.00,,BKN,0.00,VWS V13.01,2013-02-01 13:06:00,
2013-02-01 08:11:00,22.6,3.0,29.15,WNW,290,13.0,17.2,42,0.00,,BKN,0.00,VWS V13.01,2013-02-01 13:11:00,
2013-02-01 08:16:00,22.6,3.0,29.15,West,279,12.5,15.9,42,0.00,,BKN,0.00,VWS V13.01,2013-02-01 13:16:00,
2013-02-01 08:21:00,22.5,2.8,29.15,NW,304,13.0,20.1,42,0.00,,BKN,0.00,VWS V13.01,2013-02-01 13:21:00,
2013-02-01 08:26:00,22.5,2.8,29.15,West,277,4.0,11.6,42,0.00,,BKN,0.00,VWS V13.01,2013-02-01 13:26:00,
2013-02-01 08:30:00,22.6,3.5,29.18,WNW,295,5.8,9.6,43,0.00,,BKN,0.00,VWS V13.01,2013-02-01 13:30:00,
2013-02-01 08:35:00,22.1,3.0,29.18,NNW,335,7.8,17.2,43,0.00,,BKN,0.00,VWS V13.01,2013-02-01 13:35:00,
2013-02-01 08:40:00,21.2,3.2,29.18,NW,307,10.5,15.2,45,0.00,,BKN,0.00,VWS V13.01,2013-02-01 13:40:00,
2013-02-01 08:45:00,20.8,2.9,29.18,WNW,301,9.6,9.6,45,0.00,,BKN,0.00,VWS V13.01,2013-02-01 13:45:00,
2013-02-01 08:50:00,21.2,3.7,29.18,West,274,8.3,11.2,46,0.00,,BKN,0.00,VWS V13.01,2013-02-01 13:50:00,
2013-02-01 08:55:00,21.2,2.2,29.18,NW,304,10.5,18.6,43,0.00,,BKN,0.00,VWS V13.01,2013-02-01 13:55:00,
2013-02-01 09:00:00,21.2,2.2,29.21,West,281,6.9,12.5,43,0.00,,BKN,0.00,VWS V13.01,2013-02-01 14:00:00,
2013-02-01 09:05:00,21.0,2.0,29.21,WSW,247,9.6,11.6,43,0.00,,BKN,0.00,VWS V13.01,2013-02-01 14:05:00,
2013-02-01 09:10:00,21.0,2.0,29.21,WNW,289,10.5,17.7,43,0.00,,BKN,0.00,VWS V13.01,2013-02-01 14:10:00,
2013-02-01 09:15:00,20.8,2.4,29.21,SW,236,8.3,15.2,44,0.00,,BKN,0.00,VWS V13.01,2013-02-01 14:15:00,
2013-02-01 09:20:00,20.3,2.8,29.21,NW,307,11.6,17.2,46,0.00,,BKN,0.00,VWS V13.01,2013-02-01 14:20:00,
2013-02-01 09:25:00,19.9,4.3,29.21,WSW,244,5.8,10.5,50,0.00,,BKN,0.00,VWS V13.01,2013-02-01 14:25:00,
2013-02-01 09:30:00,20.1,5.3,29.21,WSW,243,6.7,8.3,52,0.00,,BKN,0.00,VWS V13.01,2013-02-01 14:30:00,
2013-02-01 09:35:00,20.5,4.4,29.21,WNW,297,7.4,10.1,49,0.00,,BKN,0.00,VWS V13.01,2013-02-01 14:35:00,
2013-02-01 09:40:00,20.8,2.4,29.21,WNW,290,6.9,9.2,44,0.00,,BKN,0.00,VWS V13.01,2013-02-01 14:40:00,
2013-02-01 09:45:00,21.4,1.9,29.23,West,259,7.4,15.2,42,0.00,,BKN,0.00,VWS V13.01,2013-02-01 14:45:00,
2013-02-01 09:50:00,21.4,0.8,29.23,WNW,291,12.1,17.7,40,0.00,,BKN,0.00,VWS V13.01,2013-02-01 14:50:00,
2013-02-01 09:55:00,21.4,0.3,29.23,West,274,8.7,15.9,39,0.00,,BKN,0.00,VWS V13.01,2013-02-01 14:55:00,
2013-02-01 10:00:00,21.4,0.3,29.23,West,259,6.3,7.4,39,0.00,,BKN,0.00,VWS V13.01,2013-02-01 15:00:00,
2013-02-01 10:05:00,21.7,0.6,29.23,West,281,9.6,11.6,39,0.00,,BKN,0.00,VWS V13.01,2013-02-01 15:05:00,
2013-02-01 10:10:00,21.4,0.3,29.23,SW,232,14.3,21.5,39,0.00,,BKN,0.00,VWS V13.01,2013-02-01 15:10:00,
2013-02-01 10:15:00,21.2,0.1,29.23,WNW,291,18.1,18.1,39,0.00,,BKN,0.00,VWS V13.01,2013-02-01 15:15:00,
2013-02-01 10:20:00,21.4,-0.3,29.23,NNW,332,5.8,14.3,38,0.00,,BKN,0.00,VWS V13.01,2013-02-01 15:20:00,
2013-02-01 10:25:00,21.7,0.6,29.23,West,275,6.3,6.9,39,0.00,,BKN,0.00,VWS V13.01,2013-02-01 15:25:00,
2013-02-01 10:30:00,22.1,0.4,29.26,WNW,282,4.0,10.5,38,0.00,,BKN,0.00,VWS V13.01,2013-02-01 15:30:00,
2013-02-01 10:35:00,22.3,0.5,29.26,WNW,282,4.0,10.1,38,0.00,,BKN,0.00,VWS V13.01,2013-02-01 15:35:00,
2013-02-01 10:40:00,22.1,-0.2,29.26,SW,234,9.2,20.1,37,0.00,,BKN,0.00,VWS V13.01,2013-02-01 15:40:00,
2013-02-01 10:45:00,21.7,-0.5,29.26,SW,233,11.0,11.0,37,0.00,,BKN,0.00,VWS V13.01,2013-02-01 15:45:00,
2013-02-01 10:50:00,21.6,-0.7,29.26,WSW,239,8.7,15.2,37,0.00,,BKN,0.00,VWS V13.01,2013-02-01 15:50:00,
2013-02-01 10:55:00,21.4,-0.8,29.26,NW,322,8.7,13.9,37,0.00,,BKN,0.00,VWS V13.01,2013-02-01 15:55:00,
2013-02-01 11:00:00,21.7,-0.5,29.26,West,264,13.0,13.0,37,0.00,,BKN,0.00,VWS V13.01,2013-02-01 16:00:00,
2013-02-01 11:05:00,21.9,-0.3,29.26,West,274,11.6,15.9,37,0.00,,BKN,0.00,VWS V13.01,2013-02-01 16:05:00,
2013-02-01 11:10:00,21.9,0.2,29.26,WNW,292,10.5,10.5,38,0.00,,BKN,0.00,VWS V13.01,2013-02-01 16:10:00,
2013-02-01 11:15:00,22.1,-0.2,29.26,NW,304,10.1,10.1,37,0.00,,BKN,0.00,VWS V13.01,2013-02-01 16:15:00,
2013-02-01 11:20:00,22.1,-0.8,29.26,West,277,6.3,13.0,36,0.00,,BKN,0.00,VWS V13.01,2013-02-01 16:20:00,
2013-02-01 12:06:00,22.6,-0.3,29.29,WNW,289,9.2,9.2,36,0.00,,BKN,0.00,VWS V13.01,2013-02-01 17:06:00,
2013-02-01 12:18:00,22.8,-0.1,29.29,West,279,15.2,15.2,36,0.00,,BKN,0.00,VWS V13.01,2013-02-01 17:18:00,
2013-02-01 12:23:00,22.5,-1.0,29.29,West,266,6.9,6.9,35,0.00,,BKN,0.00,VWS V13.01,2013-02-01 17:23:00,
2013-02-01 12:28:00,22.8,-0.1,29.29,SW,235,5.4,5.4,36,0.00,,BKN,0.00,VWS V13.01,2013-02-01 17:28:00,
2013-02-01 12:33:00,22.5,-0.4,29.29,West,275,6.7,6.7,36,0.00,,BKN,0.00,VWS V13.01,2013-02-01 17:33:00,
2013-02-01 12:38:00,22.5,-0.4,29.29,NW,316,8.3,8.3,36,0.00,,BKN,0.00,VWS V13.01,2013-02-01 17:38:00,
2013-02-01 12:43:00,22.5,-0.4,29.29,WSW,248,11.0,13.0,36,0.00,,BKN,0.00,VWS V13.01,2013-02-01 17:43:00,
2013-02-01 12:48:00,22.5,-1.0,29.29,WNW,283,4.5,11.6,35,0.00,,BKN,0.00,VWS V13.01,2013-02-01 17:48:00,
2013-02-01 12:52:00,22.8,-0.7,29.29,WSW,242,9.6,9.6,35,0.00,,BKN,0.00,VWS V13.01,2013-02-01 17:52:00,
2013-02-01 12:57:00,23.0,-0.6,29.29,WSW,245,9.6,18.6,35,0.00,,BKN,0.00,VWS V13.01,2013-02-01 17:57:00,
2013-02-01 13:02:00,23.4,-0.2,29.29,WSW,237,7.8,12.1,35,0.00,,BKN,0.00,VWS V13.01,2013-02-01 18:02:00,
2013-02-01 13:07:00,23.4,-0.2,29.29,SW,227,13.4,14.3,35,0.00,,BKN,0.00,VWS V13.01,2013-02-01 18:07:00,
2013-02-01 13:12:00,23.0,-1.2,29.29,West,268,8.7,11.2,34,0.00,,BKN,0.00,VWS V13.01,2013-02-01 18:12:00,
2013-02-01 13:17:00,23.0,-0.6,29.29,SSW,194,9.2,9.2,35,0.00,,BKN,0.00,VWS V13.01,2013-02-01 18:17:00,
2013-02-01 13:22:00,23.0,-1.2,29.29,SW,232,6.3,14.3,34,0.00,,BKN,0.00,VWS V13.01,2013-02-01 18:22:00,
2013-02-01 13:27:00,22.6,-1.5,29.29,SSW,211,6.7,12.5,34,0.00,,BKN,0.00,VWS V13.01,2013-02-01 18:27:00,
2013-02-01 13:32:00,22.6,-1.5,29.29,WSW,239,12.1,15.4,34,0.00,,BKN,0.00,VWS V13.01,2013-02-01 18:32:00,
2013-02-01 13:37:00,22.6,-1.5,29.29,West,277,9.6,12.1,34,0.00,,BKN,0.00,VWS V13.01,2013-02-01 18:37:00,
2013-02-01 13:42:00,22.3,-1.8,29.29,NNW,333,4.5,6.7,34,0.00,,BKN,0.00,VWS V13.01,2013-02-01 18:42:00,
2013-02-01 13:47:00,22.8,-1.3,29.29,SSW,213,10.5,13.9,34,0.00,,BKN,0.00,VWS V13.01,2013-02-01 18:47:00,
2013-02-01 13:52:00,22.8,-1.3,29.29,WNW,293,10.1,12.1,34,0.00,,BKN,0.00,VWS V13.01,2013-02-01 18:52:00,
2013-02-01 13:57:00,23.4,-0.9,29.29,WNW,283,8.7,17.7,34,0.00,,BKN,0.00,VWS V13.01,2013-02-01 18:57:00,
2013-02-01 14:02:00,23.5,-0.7,29.29,WSW,255,11.6,14.8,34,0.00,,BKN,0.00,VWS V13.01,2013-02-01 19:02:00,
2013-02-01 14:07:00,23.2,-1.0,29.29,WSW,247,15.2,15.2,34,0.00,,BKN,0.00,VWS V13.01,2013-02-01 19:07:00,
2013-02-01 14:12:00,23.0,-1.2,29.29,WSW,242,12.1,13.4,34,0.00,,BKN,0.00,VWS V13.01,2013-02-01 19:12:00,
2013-02-01 14:17:00,23.2,-1.0,29.32,West,262,6.7,13.9,34,0.00,,BKN,0.00,VWS V13.01,2013-02-01 19:17:00,
2013-02-01 14:22:00,23.0,-1.2,29.32,SW,233,8.3,8.3,34,0.00,,BKN,0.00,VWS V13.01,2013-02-01 19:22:00,
2013-02-01 14:27:00,23.2,-1.0,29.32,WSW,255,8.7,15.9,34,0.00,,BKN,0.00,VWS V13.01,2013-02-01 19:27:00,
2013-02-01 14:32:00,23.2,-1.0,29.32,WNW,300,7.4,16.8,34,0.00,,BKN,0.00,VWS V13.01,2013-02-01 19:32:00,
2013-02-01 14:37:00,23.0,-1.2,29.32,West,271,12.5,13.0,34,0.00,,BKN,0.00,VWS V13.01,2013-02-01 19:37:00,
2013-02-01 14:42:00,23.2,-1.0,29.32,West,281,14.3,15.2,34,0.00,,BKN,0.00,VWS V13.01,2013-02-01 19:42:00,
2013-02-01 14:47:00,22.8,-1.3,29.32,SW,230,5.8,14.8,34,0.00,,BKN,0.00,VWS V13.01,2013-02-01 19:47:00,
2013-02-01 14:52:00,22.8,-1.3,29.32,West,273,11.2,16.3,34,0.00,,BKN,0.00,VWS V13.01,2013-02-01 19:52:00,
2013-02-01 14:57:00,22.6,-1.5,29.32,WSW,253,12.1,14.3,34,0.00,,BKN,0.00,VWS V13.01,2013-02-01 19:57:00,
2013-02-01 15:02:00,22.6,-1.5,29.32,WNW,283,11.6,11.6,34,0.00,,BKN,0.00,VWS V13.01,2013-02-01 20:02:00,
2013-02-01 15:07:00,22.1,-2.0,29.32,WNW,283,11.6,11.6,34,0.00,,BKN,0.00,VWS V13.01,2013-02-01 20:07:00,
2013-02-01 15:12:00,22.1,-2.0,29.32,WNW,283,11.6,11.6,34,0.00,,BKN,0.00,VWS V13.01,2013-02-01 20:12:00,
2013-02-01 15:17:00,21.9,-2.1,29.32,WNW,283,11.6,11.6,34,0.00,,BKN,0.00,VWS V13.01,2013-02-01 20:17:00,
2013-02-01 15:22:00,21.7,-2.3,29.32,WNW,283,11.6,11.6,34,0.00,,BKN,0.00,VWS V13.01,2013-02-01 20:22:00,
2013-02-01 15:27:00,21.6,-2.5,29.32,WNW,283,11.6,11.6,34,0.00,,BKN,0.00,VWS V13.01,2013-02-01 20:27:00,
2013-02-01 15:32:00,21.6,-2.5,29.35,WNW,283,11.6,11.6,34,0.00,,BKN,0.00,VWS V13.01,2013-02-01 20:32:00,
2013-02-01 15:37:00,21.4,-2.6,29.35,WNW,283,11.6,11.6,34,0.00,,BKN,0.00,VWS V13.01,2013-02-01 20:37:00,
2013-02-01 15:42:00,21.4,-2.6,29.35,WNW,283,11.6,11.6,34,0.00,,BKN,0.00,VWS V13.01,2013-02-01 20:42:00,
2013-02-01 15:47:00,21.4,-2.6,29.35,WNW,283,11.6,11.6,34,0.00,,BKN,0.00,VWS V13.01,2013-02-01 20:47:00,
2013-02-01 15:52:00,21.6,-2.5,29.35,WNW,283,11.6,11.6,34,0.00,,BKN,0.00,VWS V13.01,2013-02-01 20:52:00,
2013-02-01 15:57:00,21.7,-2.3,29.35,WNW,283,11.6,11.6,34,0.00,,BKN,0.00,VWS V13.01,2013-02-01 20:57:00,
2013-02-01 16:02:00,21.7,-2.3,29.35,WNW,283,11.6,11.6,34,0.00,,BKN,0.00,VWS V13.01,2013-02-01 21:02:00,
2013-02-01 16:07:00,21.7,-2.3,29.35,WNW,283,11.6,11.6,34,0.00,,BKN,0.00,VWS V13.01,2013-02-01 21:07:00,
2013-02-01 16:12:00,21.7,-2.3,29.35,WNW,283,11.6,11.6,34,0.00,,BKN,0.00,VWS V13.01,2013-02-01 21:12:00,
2013-02-01 16:17:00,21.7,-2.3,29.35,SW,230,4.9,4.9,34,0.00,,BKN,0.00,VWS V13.01,2013-02-01 21:17:00,
2013-02-01 16:22:00,21.6,-2.5,29.35,SW,230,4.9,4.9,34,0.00,,BKN,0.00,VWS V13.01,2013-02-01 21:22:00,
2013-02-01 16:27:00,21.7,-1.7,29.35,SW,230,4.9,4.9,35,0.00,,BKN,0.00,VWS V13.01,2013-02-01 21:27:00,
2013-02-01 16:32:00,21.7,-2.3,29.38,SW,230,4.9,4.9,34,0.00,,BKN,0.00,VWS V13.01,2013-02-01 21:32:00,
2013-02-01 16:37:00,21.6,-2.5,29.38,SW,230,4.9,4.9,34,0.00,,BKN,0.00,VWS V13.01,2013-02-01 21:37:00,
2013-02-01 16:42:00,21.4,-2.0,29.38,SW,230,4.9,4.9,35,0.00,,BKN,0.00,VWS V13.01,2013-02-01 21:42:00,
2013-02-01 16:47:00,21.4,-2.6,29.38,SW,230,4.9,4.9,34,0.00,,BKN,0.00,VWS V13.01,2013-02-01 21:47:00,
2013-02-01 16:52:00,21.2,-2.8,29.38,SW,230,4.9,4.9,34,0.00,,BKN,0.00,VWS V13.01,2013-02-01 21:52:00,
2013-02-01 16:57:00,21.2,-2.2,29.38,SW,230,4.9,4.9,35,0.00,,BKN,0.00,VWS V13.01,2013-02-01 21:57:00,
2013-02-01 17:02:00,20.8,-3.1,29.38,SW,230,4.9,4.9,34,0.00,,BKN,0.00,VWS V13.01,2013-02-01 22:02:00,
2013-02-01 17:07:00,20.8,-2.5,29.38,SW,230,4.9,4.9,35,0.00,,BKN,0.00,VWS V13.01,2013-02-01 22:07:00,
2013-02-01 17:12:00,20.7,-2.7,29.38,SW,230,4.9,4.9,35,0.00,,BKN,0.00,VWS V13.01,2013-02-01 22:12:00,
2013-02-01 17:17:00,20.5,-2.8,29.38,SW,230,4.9,4.9,35,0.00,,BKN,0.00,VWS V13.01,2013-02-01 22:17:00,
2013-02-01 17:22:00,20.3,-3.0,29.38,SW,230,4.9,4.9,35,0.00,,BKN,0.00,VWS V13.01,2013-02-01 22:22:00,
2013-02-01 17:27:00,20.3,-3.0,29.38,SW,230,4.9,4.9,35,0.00,,BKN,0.00,VWS V13.01,2013-02-01 22:27:00,
2013-02-01 17:32:00,19.9,-3.3,29.38,SW,230,4.9,4.9,35,0.00,,BKN,0.00,VWS V13.01,2013-02-01 22:32:00,
2013-02-01 17:37:00,19.8,-3.5,29.38,SW,230,4.9,4.9,35,0.00,,BKN,0.00,VWS V13.01,2013-02-01 22:37:00,
2013-02-01 17:42:00,19.8,-3.5,29.38,SW,230,4.9,4.9,35,0.00,,BKN,0.00,VWS V13.01,2013-02-01 22:42:00,
2013-02-01 17:47:00,19.6,-3.6,29.41,SW,230,4.9,4.9,35,0.00,,BKN,0.00,VWS V13.01,2013-02-01 22:47:00,
2013-02-01 17:52:00,19.4,-3.8,29.41,SW,230,4.9,4.9,35,0.00,,BKN,0.00,VWS V13.01,2013-02-01 22:52:00,
2013-02-01 17:57:00,19.4,-3.8,29.41,SW,230,4.9,4.9,35,0.00,,BKN,0.00,VWS V13.01,2013-02-01 22:57:00,
2013-02-01 18:02:00,19.2,-3.9,29.41,SW,230,4.9,4.9,35,0.00,,BKN,0.00,VWS V13.01,2013-02-01 23:02:00,
2013-02-01 18:07:00,19.2,-3.9,29.41,SW,230,4.9,4.9,35,0.00,,BKN,0.00,VWS V13.01,2013-02-01 23:07:00,
2013-02-01 18:12:00,19.0,-4.1,29.41,SW,230,4.9,4.9,35,0.00,,BKN,0.00,VWS V13.01,2013-02-01 23:12:00,
2013-02-01 18:17:00,19.0,-4.1,29.41,SW,230,4.9,4.9,35,0.00,,BKN,0.00,VWS V13.01,2013-02-01 23:17:00,
2013-02-01 18:22:00,19.0,-4.1,29.41,SW,230,4.9,4.9,35,0.00,,BKN,0.00,VWS V13.01,2013-02-01 23:22:00,
2013-02-01 18:27:00,18.9,-4.3,29.41,SW,230,4.9,4.9,35,0.00,,BKN,0.00,VWS V13.01,2013-02-01 23:27:00,
2013-02-01 18:32:00,18.9,-4.3,29.41,SW,230,4.9,4.9,35,0.00,,BKN,0.00,VWS V13.01,2013-02-01 23:32:00,
2013-02-01 18:37:00,18.7,-4.4,29.41,SW,230,4.9,4.9,35,0.00,,BKN,0.00,VWS V13.01,2013-02-01 23:37:00,
2013-02-01 18:42:00,18.7,-3.8,29.41,SW,230,4.9,4.9,36,0.00,,BKN,0.00,VWS V13.01,2013-02-01 23:42:00,
2013-02-01 18:47:00,18.7,-3.8,29.41,SW,230,4.9,4.9,36,0.00,,BKN,0.00,VWS V13.01,2013-02-01 23:47:00,
2013-02-01 18:52:00,18.5,-4.0,29.41,SW,230,4.9,4.9,36,0.00,,BKN,0.00,VWS V13.01,2013-02-01 23:52:00,
2013-02-01 18:57:00,18.5,-4.0,29.41,SW,230,4.9,4.9,36,0.00,,BKN,0.00,VWS V13.01,2013-02-01 23:57:00,
2013-02-01 19:02:00,18.5,-4.0,29.41,SW,230,4.9,4.9,36,0.00,,BKN,0.00,VWS V13.01,2013-02-02 00:02:00,
2013-02-01 19:07:00,18.5,-4.0,29.41,SW,230,4.9,4.9,36,0.00,,BKN,0.00,VWS V13.01,2013-02-02 00:07:00,
2013-02-01 19:12:00,18.3,-4.2,29.41,SW,230,4.9,4.9,36,0.00,,BKN,0.00,VWS V13.01,2013-02-02 00:12:00,
2013-02-01 19:17:00,18.3,-4.2,29.44,SW,230,4.9,4.9,36,0.00,,BKN,0.00,VWS V13.01,2013-02-02 00:17:00,
2013-02-01 19:21:00,18.3,-4.2,29.44,SW,230,4.9,4.9,36,0.00,,BKN,0.00,VWS V13.01,2013-02-02 00:21:00,
2013-02-01 19:26:00,18.1,-4.3,29.44,SW,230,4.9,4.9,36,0.00,,BKN,0.00,VWS V13.01,2013-02-02 00:26:00,
2013-02-01 19:31:00,18.1,-4.3,29.44,SW,230,4.9,4.9,36,0.00,,BKN,0.00,VWS V13.01,2013-02-02 00:31:00,
2013-02-01 19:36:00,18.0,-4.5,29.44,SW,230,4.9,4.9,36,0.00,,BKN,0.00,VWS V13.01,2013-02-02 00:36:00,
2013-02-01 19:41:00,17.8,-4.6,29.44,SW,230,4.9,4.9,36,0.00,,BKN,0.00,VWS V13.01,2013-02-02 00:41:00,
2013-02-01 19:46:00,17.8,-4.6,29.44,SW,230,4.9,4.9,36,0.00,,BKN,0.00,VWS V13.01,2013-02-02 00:46:00,
2013-02-01 19:51:00,17.8,-4.6,29.44,SW,230,4.9,4.9,36,0.00,,BKN,0.00,VWS V13.01,2013-02-02 00:51:00,
2013-02-01 19:56:00,17.8,-4.6,29.44,SW,230,4.9,4.9,36,0.00,,BKN,0.00,VWS V13.01,2013-02-02 00:56:00,
2013-02-01 20:01:00,17.6,-4.8,29.44,SW,230,4.9,4.9,36,0.00,,BKN,0.00,VWS V13.01,2013-02-02 01:01:00,
2013-02-01 20:06:00,17.6,-4.8,29.44,SW,230,4.9,4.9,36,0.00,,BKN,0.00,VWS V13.01,2013-02-02 01:06:00,
2013-02-01 20:11:00,17.4,-5.0,29.44,SW,230,4.9,4.9,36,0.00,,BKN,0.00,VWS V13.01,2013-02-02 01:11:00,
2013-02-01 20:16:00,17.4,-5.0,29.44,SW,230,4.9,4.9,36,0.00,,BKN,0.00,VWS V13.01,2013-02-02 01:16:00,
2013-02-01 20:21:00,17.2,-5.1,29.44,SW,230,4.9,4.9,36,0.00,,BKN,0.00,VWS V13.01,2013-02-02 01:21:00,
2013-02-01 20:26:00,17.1,-4.7,29.44,SW,230,4.9,4.9,37,0.00,,BKN,0.00,VWS V13.01,2013-02-02 01:26:00,
2013-02-01 20:31:00,17.1,-5.3,29.44,SW,230,4.9,4.9,36,0.00,,BKN,0.00,VWS V13.01,2013-02-02 01:31:00,
2013-02-01 20:36:00,16.9,-4.9,29.44,SW,230,4.9,4.9,37,0.00,,BKN,0.00,VWS V13.01,2013-02-02 01:36:00,
2013-02-01 20:41:00,16.9,-4.9,29.44,SW,230,4.9,4.9,37,0.00,,BKN,0.00,VWS V13.01,2013-02-02 01:41:00,
2013-02-01 20:46:00,16.9,-4.9,29.47,SW,230,4.9,4.9,37,0.00,,BKN,0.00,VWS V13.01,2013-02-02 01:46:00,
2013-02-01 20:51:00,16.5,-5.2,29.47,SW,230,4.9,4.9,37,0.00,,BKN,0.00,VWS V13.01,2013-02-02 01:51:00,
2013-02-01 20:56:00,16.5,-5.2,29.47,SW,230,4.9,4.9,37,0.00,,BKN,0.00,VWS V13.01,2013-02-02 01:56:00,
2013-02-01 21:01:00,16.2,-5.5,29.47,SW,230,4.9,4.9,37,0.00,,BKN,0.00,VWS V13.01,2013-02-02 02:01:00,
2013-02-01 21:06:00,16.0,-5.7,29.47,SW,230,4.9,4.9,37,0.00,,BKN,0.00,VWS V13.01,2013-02-02 02:06:00,
2013-02-01 21:11:00,16.0,-5.7,29.47,SW,230,4.9,4.9,37,0.00,,BKN,0.00,VWS V13.01,2013-02-02 02:11:00,
2013-02-01 21:16:00,15.8,-5.8,29.47,SW,230,4.9,4.9,37,0.00,,BKN,0.00,VWS V13.01,2013-02-02 02:16:00,
2013-02-01 21:21:00,15.8,-5.3,29.47,SW,230,4.9,4.9,38,0.00,,BKN,0.00,VWS V13.01,2013-02-02 02:21:00,
2013-02-01 21:26:00,15.8,-5.3,29.47,SW,230,4.9,4.9,38,0.00,,BKN,0.00,VWS V13.01,2013-02-02 02:26:00,
2013-02-01 21:31:00,16.0,-5.1,29.47,SW,230,4.9,4.9,38,0.00,,BKN,0.00,VWS V13.01,2013-02-02 02:31:00,
2013-02-01 21:36:00,16.2,-5.0,29.47,SW,230,4.9,4.9,38,0.00,,BKN,0.00,VWS V13.01,2013-02-02 02:36:00,
2013-02-01 21:41:00,16.3,-4.8,29.47,SW,230,4.9,4.9,38,0.00,,BKN,0.00,VWS V13.01,2013-02-02 02:41:00,
2013-02-01 21:46:00,16.3,-4.8,29.47,SW,230,4.9,4.9,38,0.00,,BKN,0.00,VWS V13.01,2013-02-02 02:46:00,
2013-02-01 21:51:00,16.3,-4.8,29.47,SW,230,4.9,4.9,38,0.00,,BKN,0.00,VWS V13.01,2013-02-02 02:51:00,
2013-02-01 21:56:00,16.3,-4.8,29.47,SW,230,4.9,4.9,38,0.00,,BKN,0.00,VWS V13.01,2013-02-02 02:56:00,
2013-02-01 22:01:00,16.3,-4.8,29.47,SW,230,4.9,4.9,38,0.00,,BKN,0.00,VWS V13.01,2013-02-02 03:01:00,
2013-02-01 22:06:00,16.0,-5.1,29.47,SW,230,4.9,4.9,38,0.00,,BKN,0.00,VWS V13.01,2013-02-02 03:06:00,
2013-02-01 22:11:00,16.0,-5.1,29.47,SW,230,4.9,4.9,38,0.00,,BKN,0.00,VWS V13.01,2013-02-02 03:11:00,
2013-02-01 22:16:00,15.8,-5.3,29.47,SW,230,4.9,4.9,38,0.00,,BKN,0.00,VWS V13.01,2013-02-02 03:16:00,
2013-02-01 22:21:00,15.6,-5.5,29.47,SW,230,4.9,4.9,38,0.00,,BKN,0.00,VWS V13.01,2013-02-02 03:21:00,
2013-02-01 22:26:00,15.3,-5.8,29.47,SW,230,4.9,4.9,38,0.00,,BKN,0.00,VWS V13.01,2013-02-02 03:26:00,
2013-02-01 22:31:00,15.3,-5.8,29.47,SW,230,4.9,4.9,38,0.00,,BKN,0.00,VWS V13.01,2013-02-02 03:31:00,
2013-02-01 22:36:00,15.1,-5.9,29.47,SW,230,4.9,4.9,38,0.00,,BKN,0.00,VWS V13.01,2013-02-02 03:36:00,
2013-02-01 22:41:00,15.1,-5.9,29.47,SW,230,4.9,4.9,38,0.00,,BKN,0.00,VWS V13.01,2013-02-02 03:41:00,
2013-02-01 22:46:00,15.3,-5.2,29.47,SW,230,4.9,4.9,39,0.00,,BKN,0.00,VWS V13.01,2013-02-02 03:46:00,
2013-02-01 22:51:00,15.3,-5.2,29.47,SW,230,4.9,4.9,39,0.00,,BKN,0.00,VWS V13.01,2013-02-02 03:51:00,
2013-02-01 22:56:00,15.1,-5.4,29.47,SW,230,4.9,4.9,39,0.00,,BKN,0.00,VWS V13.01,2013-02-02 03:56:00,
2013-02-01 23:01:00,14.9,-5.6,29.50,SW,230,4.9,4.9,39,0.00,,BKN,0.00,VWS V13.01,2013-02-02 04:01:00,
2013-02-01 23:06:00,14.7,-5.7,29.50,SW,230,4.9,4.9,39,0.00,,BKN,0.00,VWS V13.01,2013-02-02 04:06:00,
2013-02-01 23:11:00,14.7,-5.7,29.50,SW,230,4.9,4.9,39,0.00,,BKN,0.00,VWS V13.01,2013-02-02 04:11:00,
2013-02-01 23:16:00,14.7,-5.2,29.50,SW,230,4.9,4.9,40,0.00,,BKN,0.00,VWS V13.01,2013-02-02 04:16:00,
2013-02-01 23:21:00,14.9,-5.1,29.50,SW,230,4.9,4.9,40,0.00,,BKN,0.00,VWS V13.01,2013-02-02 04:21:00,
2013-02-01 23:26:00,15.1,-4.9,29.50,SW,230,4.9,4.9,40,0.00,,BKN,0.00,VWS V13.01,2013-02-02 04:26:00,
2013-02-01 23:31:00,14.9,-5.1,29.50,SW,230,4.9,4.9,40,0.00,,BKN,0.00,VWS V13.01,2013-02-02 04:31:00,
2013-02-01 23:36:00,14.9,-4.5,29.50,SW,230,4.9,4.9,41,0.00,,BKN,0.00,VWS V13.01,2013-02-02 04:36:00,
2013-02-01 23:41:00,14.5,-4.4,29.50,SW,230,4.9,4.9,42,0.00,,BKN,0.00,VWS V13.01,2013-02-02 04:41:00,
2013-02-01 23:46:00,14.2,-4.7,29.50,SW,230,4.9,4.9,42,0.00,,BKN,0.00,VWS V13.01,2013-02-02 04:46:00,
2013-02-01 23:51:00,14.2,-4.2,29.50,SW,230,4.9,4.9,43,0.00,,BKN,0.00,VWS V13.01,2013-02-02 04:51:00,
2013-02-01 23:56:00,14.2,-4.2,29.50,SW,230,4.9,4.9,43,0.00,,BKN,0.00,VWS V13.01,2013-02-02 04:56:00,